Location: Lugano
(46.0000°N, 8.9670°E)
Time: 17:12:51
(UTC+02:00)

Envisat - Pass Details

Date: 21 March 2026
Orbit: 761 x 762 km, 98.4° (Epoch: 19 April)

Event Time Altitude Azimuth Distance (km) Brightness Sun altitude
Rises 03:14:36 0° 13° (NNE) 3,235 6.9 -31.6°
Reaches altitude 10° 03:16:54 10° 13° (NNE) 2,305 6.0 -31.3°
Enters shadow 03:20:26 46° 9° (N) 1,022 3.8 -30.8°
